Details for Transavia (Netherlands) at EHEH




Go Back


Latest METAR
Local Time

EHEH 221125Z AUTO 23014KT 200V270 9999 BKN091 OVC096 16/08 Q1019 BLU 22012KT 9999 FEW030 SCT060 BKN100 TEMPO 24012G22KT
22/09/2018, 13:53:04

Description
Results
Transavia (Netherlands) Logo
Number of Pilots based at EHEH
0 Pilots Based here
Number of Transavia (Netherlands) Flights Departed from EHEH
5 Flights Departed
Number of Transavia (Netherlands) Flights Arrived at EHEH
3 Flights Arrived
Number of Transavia (Netherlands) Schedules Departing from EHEH
99 Schedules
Number of Transavia (Netherlands) Schedules Arriving at EHEH
98 Schedules
Number of Transavia (Netherlands) Schedules Departing from EHEH availible today
19 Schedules Today
Number of Transavia (Netherlands) Schedules Arriving at EHEH availible today
19 Schedules Today
Average Landing Rate at EHEH
-146 fpm
Transavia (Netherlands) Average Landing Rate at EHEH
-159 fpm
Total Fuel Purchased at EHEH by Transavia (Netherlands)
16,238.15 kgs / 35,798.63 lbs

Pilots Based at EHEH


Pilot ID
Pilot Name
Pilot Rank
No. of Flights
No. of Flying Hours
There are no pilots assigned to this hub!   Will you be the first?
Content